Location: Lugrin
(46.4033°N, 6.6674°E)
Time: 05:45:50
(UTC+00:00)

Abrixas rocket - Pass Details

Date: 18 September 2020
Orbit: 328 x 336 km, 48.4° (Epoch: 23 October)

Event Time Altitude Azimuth Distance (km) Brightness Sun altitude
Rises 17:59:53 0° 248° (WSW) 2,094 7.0 -4.5°
Reaches altitude 10° 18:01:52 10° 248° (WSW) 1,257 5.8 -4.9°
Maximum altitude 18:04:40 79° 162° (SSE) 340 1.7 -5.4°
Drops below altitude 10° 18:07:28 10° 74° (ENE) 1,256 4.1 -5.8°
Enters shadow 18:08:07 - 74° (ENE) 1,525 4.5 -6.0°
